カタログに戻る

SL-14 R/B

運用中LEO
NORAD 22283·ROCKET BODY·🇷🇺 Russia

打ち上げ Dec 22, 1992 から Plesetsk Cosmodrome

Loading…

次のパス (今後24時間)

TLE

最新Source: Space-Track

元期: Sep 14, 2026, 22:29 UTC

1 22283U 92092B   26257.93742748 -.00000007  00000-0  70566-4 0  9991
2 22283  73.6252 126.6155 0058925 353.2825  29.1575 12.48301057537079

AllMySatでSL-14 R/Bをリアルタイム追跡

Download on the App Store